weather.gov     
National Weather Service

Regional Weather Roundup
NWS Homepage
This page is being discontinued on March 12, 2014.
The same data is available at this site. Please update your bookmarks.
Thank you, and we apologize for the inconvenience.
Please send an email to SR-SRH.Webmaster@noaa.gov with any concerns.


Current Version
Previous Version:    01  02  03  04  05  06  07  08  09  10  11  12  13  14  15  16  17  18  19  20  21  22  23  24  25  26  27  28  29  30  
   31  32  33  34  35  36  37  38  39  40  41  42  43  44  45  46  47  48  49  50  51  52  53  54  
[Printable]
778
ASUS44 KMEG 200010
RWRTN
TENNESSEE HOURLY STATE WEATHER ROUNDUP
NATIONAL WEATHER SERVICE MEMPHIS TN
600 PM CST FRI DEC 19 2014

TNZ002-004-019-021-049-052-054-088>092-200100-
WEST TENNESSEE

CITY           SKY/WX    TMP DP  RH WIND       PRES   REMARKS
MEMPHIS INTL   CLOUDY    43  35  73 NE7       30.22R
NWS MEMPHIS      N/A     42 N/A N/A MISG        N/A
JACKSON        CLOUDY    41  29  62 NE12      30.21F
DYERSBURG      CLOUDY    39  21  48 NE9       30.23F WCI  33
UNION CITY     CLEAR     37  28  70 NE8       30.22F WCI  31
PARIS          CLEAR     36  28  75 NE9       30.23F WCI  29
HUNTINGDON     CLOUDY    36  28  73 NE6       30.23F WCI  31
LEXINGTON      CLEAR     39  28  65 NE3       30.21S
SAVANNAH       CLEAR     39  30  70 N3        30.21S
$$

TNZ008-025-027-028-033-062-065-066-200100-
NORTH MIDDLE TENNESSEE

CITY           SKY/WX    TMP DP  RH WIND       PRES   REMARKS
NASHVILLE      CLOUDY    38  28  67 N9        30.25R WCI  31
CLARKSVILLE    PTCLDY    34  29  82 N3        30.26R
SMYRNA         CLOUDY    39  30  70 CALM      30.25S
COOKEVILLE     CLEAR     36  28  75 NE5       30.20S WCI  32
CROSSVILLE     CLOUDY    37  27  67 N5        30.19R WCI  33
$$

TNZ061-075-076-078-094-096-097-200100-
SOUTH MIDDLE TENNESSEE

CITY           SKY/WX    TMP DP  RH WIND       PRES   REMARKS
FAYETTEVILLE   CLEAR     36  27  69 MISG      30.17F
TULLAHOMA      CLEAR     36  25  64 NE3       30.19F
WINCHESTER     PTCLDY    37  27  65 NE6       30.19F WCI  33
MCMINNVILLE    CLEAR     36  28  75 CALM      30.21R
SHELBYVILLE    CLEAR     37  30  75 N6        30.22S WCI  33
$$

TNZ017-018-042-046-047-200100-
NORTHEAST TENNESSEE

CITY           SKY/WX    TMP DP  RH WIND       PRES   REMARKS
TRI CITIES     CLOUDY    39  25  57 CALM      30.18R
ELIZABETHTON   CLEAR     34  25  69 CALM      30.17R
$$

TNZ012-013-036-069-073-074-200100-
CENTRAL EAST TENNESSEE

CITY           SKY/WX    TMP DP  RH WIND       PRES   REMARKS
KNOXVILLE      CLOUDY    42  26  53 N8        30.19R
OAK RIDGE      CLOUDY    42  26  53 VRB5      30.21R
GATLINBURG     CLEAR     37  28  70 CALM      30.19R
MORRISTOWN     CLEAR     39  27  60 CALM      30.19R
$$

TNZ083-085-099-200100-
SOUTHEAST TENNESSEE

CITY           SKY/WX    TMP DP  RH WIND       PRES   REMARKS
CHATTANOOGA    CLOUDY    45  30  55 N6        30.19R
$$

SKY/WX REPORTED AS FAIR MEANS FEW OR NO CLOUDS BELOW
12 THOUSAND FEET.





U.S. Dept. of Commerce
NOAA National Weather Service
1325 East West Highway
Silver Spring, MD 20910
E-mail: w-nws.webmaster@noaa.gov
Page last modified: May 16, 2007
NATIONAL WEATHER SERVICE: for Safety, for Work, for Fun - FOR LIFE